Location: Potomac Astrometric Observatory
(39.0475°N, 77.2064°W)
Time: 16:51:39
(UTC-04:00)

Envisat - Pass Details

Date: 27 March 2019
Orbit: 764 x 766 km, 98.1° (Epoch: 14 October)

Event Time Altitude Azimuth Distance (km) Brightness Sun altitude
Rises 19:50:31 0° 169° (S) 3,214 6.0 -5.3°
Reaches altitude 10° 19:52:48 10° 171° (S) 2,292 5.3 -5.7°
Maximum altitude 19:57:52 79° 257° (WSW) 784 3.2 -6.7°
Drops below altitude 10° 20:02:58 10° 345° (NNW) 2,309 5.8 -7.7°
Sets 20:05:17 0° 346° (NNW) 3,240 6.6 -8.1°
